{"data":{"norad_id":57818,"epoch":"2026-09-20T22:16:33.824064Z","epoch_age_seconds":98188,"freshness":"FRESH","line1":"1 57818U 23138L   26263.92816926  .00000052  00000+0  11430-4 0  9997","line2":"2 57818  43.0027 211.9012 0001502 265.1378  94.9302 15.27576174168493","mean_motion":15.27576174,"eccentricity":0.0001502,"inclination_deg":43.0027,"raan_deg":211.9012,"arg_perigee_deg":265.1378,"mean_anomaly_deg":94.9302,"bstar":1.143e-5,"rev_number":16849,"period_min":94.266984816169,"perigee_km":482.03000061158,"apogee_km":484.09110435634,"semimajor_km":6861.197552484,"source":"CELESTRAK","updated_at":"2026-09-21T09:00:33.708584Z"}}